Flag for Russia Weather past 2 weeks in Astrakhan, Russia

50 °F


Feels Like: 50 °F
Forecast: 38 / 61 °F
Wind: No wind

Location: Astrakhan

Current Time: Oct 7, 2015 at 3:33:50 AM

Latest Report: Oct 7, 2015 at 3:00 AM

Visibility: 0 mi

Pressure: 29.71 "Hg

Humidity: 94%

Dew point: 48 °F

Location of AstrakhanLocation

Historic Weather in Astrakhan — Graph


Astrakhan temperature yesterday

Maximum temperature yesterday: 75 °F (at 2:00 PM)
Minimum temperature yesterday: 52 °F (at 12:00 AM)
Average temperature yesterday: 61 °F

Past Weeks' High & Low Weather Summary

High90 °F (Sep 22, 1:30 PM)94% (Oct 6, 10:30 PM)30.30 "Hg (Oct 6, 10:30 PM)
Low46 °F (Oct 1, 6:00 AM)12% (Oct 1, 3:00 PM)29.71 "Hg (Oct 7, 2:30 AM)
Average66 °F48%30.12 "Hg
* Reported Sep 22 2:00 AM — Oct 7 2:30 AM, Astrakhan, Weather by CustomWeather, © 2015

Note: Actual official high and low records may vary slightly from our data, if they occured in-between our weather recording intervals... More about our weather records


Astrakhan weather history for previous 24 hours

Time TempWeatherWind HumidityBarometerVisibility
2:30 AM
Wed, Oct 7
50 °FFog.No wind94%29.71 "Hg0 mi
2:00 AM50 °FFog.No wind94%29.74 "Hg0 mi
1:30 AM52 °FCool.No wind94%29.74 "Hg0 mi
1:00 AM54 °FCool.No wind94%29.74 "Hg0 mi
12:30 AM54 °FCool.No wind94%29.74 "Hg0 mi
12:00 AM54 °FCool.No wind94%29.77 "Hg0 mi
11:30 PM
Tue, Oct 6
54 °FCool.3 mph94%29.77 "Hg0 mi
11:00 PM54 °FFog.3 mph88%29.77 "Hg1 mi
10:30 PM54 °FClear.3 mph94%29.77 "Hg5 mi
10:00 PM55 °FClear.1 mph88%29.77 "Hg10 mi
9:30 PM55 °FClear.1 mph88%29.80 "Hg10 mi
9:00 PM59 °FClear.3 mph88%29.80 "Hg10 mi
8:30 PM59 °FClear.3 mph82%29.80 "Hg10 mi
8:00 PM61 °FClear.1 mph77%29.80 "Hg10 mi
7:30 PM61 °FClear.6 mph77%29.80 "Hg10 mi
7:00 PM61 °FClear.3 mph68%29.80 "Hg10 mi
6:30 PM64 °FPassing clouds.6 mph60%29.80 "HgN/A
6:00 PM66 °FClear.8 mph52%29.80 "Hg5 mi
5:30 PM70 °FSunny.1 mph38%29.80 "Hg10 mi
5:00 PM72 °FSunny.1 mph33%29.80 "Hg10 mi
4:30 PM73 °FSunny.No wind31%29.80 "Hg10 mi
4:00 PM73 °FSunny.1 mph31%29.80 "Hg10 mi
3:30 PM73 °FPassing clouds.3 mph31%29.80 "HgN/A
3:00 PM75 °FPassing clouds.3 mph29%29.80 "HgN/A
2:30 PM75 °FSunny.1 mph27%29.83 "Hg10 mi
2:00 PM75 °FSunny.1 mph29%29.83 "Hg10 mi
1:30 PM73 °FSunny.3 mph31%29.83 "Hg10 mi
1:00 PM73 °FSunny.3 mph31%29.86 "Hg10 mi
12:30 PM73 °FPassing clouds.3 mph33%29.86 "HgN/A
12:00 PM73 °FPassing clouds.3 mph33%29.89 "HgN/A
11:30 AM72 °FSunny.1 mph41%29.89 "Hg10 mi
11:00 AM72 °FSunny.1 mph44%29.89 "Hg10 mi
10:30 AM68 °FSunny.1 mph49%29.89 "Hg10 mi
10:00 AM66 °FClear.1 mph56%29.92 "Hg4 mi
9:30 AM64 °FClear.1 mph64%29.92 "Hg2 mi
9:00 AM59 °FClear.1 mph68%29.95 "Hg2 mi
8:30 AM57 °FClear.1 mph72%29.95 "Hg3 mi
8:00 AM55 °FClear.1 mph72%29.95 "Hg3 mi
7:30 AM54 °FClear.1 mph77%29.95 "Hg3 mi
7:00 AM54 °FClear.1 mph77%29.95 "Hg3 mi
6:30 AM54 °FClear.1 mph77%29.95 "Hg3 mi
6:00 AM54 °FClear.No wind77%29.95 "Hg3 mi
5:30 AM54 °FClear.1 mph77%29.95 "Hg2 mi
5:00 AM54 °FClear.1 mph77%29.95 "Hg2 mi
4:30 AM54 °FClear.1 mph77%29.95 "Hg2 mi
4:00 AM52 °FClear.3 mph82%29.95 "Hg2 mi
3:30 AM52 °FClear.1 mph77%29.98 "Hg2 mi
3:00 AM52 °FClear.1 mph77%29.98 "Hg2 mi
Weather by CustomWeather, © 2015

See weather overviewHow to use our weather pages